Year,Month,Day,Hour,Minute,Value (Times are PST for temperature in C)
2012,09,12,00,00,7.60
2012,09,12,00,01,7.50
2012,09,12,00,02,7.50
2012,09,12,00,03,7.50
2012,09,12,00,04,7.50
2012,09,12,00,05,7.50
2012,09,12,00,06,7.50
2012,09,12,00,07,7.50
2012,09,12,00,08,7.50
2012,09,12,00,09,7.50
2012,09,12,00,10,7.40
2012,09,12,00,11,7.40
2012,09,12,00,12,7.40
2012,09,12,00,13,7.40
2012,09,12,00,14,7.40
2012,09,12,00,15,7.40
2012,09,12,00,16,7.40
2012,09,12,00,17,7.40
2012,09,12,00,18,7.30
2012,09,12,00,19,7.30
2012,09,12,00,20,7.30
2012,09,12,00,21,7.30
2012,09,12,00,22,7.30
2012,09,12,00,23,7.20
2012,09,12,00,24,7.20
2012,09,12,00,25,7.20
2012,09,12,00,26,7.20
2012,09,12,00,27,7.20
2012,09,12,00,28,7.20
2012,09,12,00,29,7.20
2012,09,12,00,30,7.20
2012,09,12,00,31,7.20
2012,09,12,00,32,7.20
2012,09,12,00,33,7.20
2012,09,12,00,34,7.20
2012,09,12,00,35,7.20
2012,09,12,00,36,7.20
2012,09,12,00,37,7.20
2012,09,12,00,38,7.20
2012,09,12,00,39,7.20
2012,09,12,00,40,7.20
2012,09,12,00,41,7.20
2012,09,12,00,42,7.20
2012,09,12,00,43,7.20
2012,09,12,00,44,7.20
2012,09,12,00,45,7.20
2012,09,12,00,46,7.10
2012,09,12,00,47,7.10
2012,09,12,00,48,7.10
2012,09,12,00,49,7.10
2012,09,12,00,50,7.00
2012,09,12,00,51,7.00
2012,09,12,00,52,7.00
2012,09,12,00,53,6.90
2012,09,12,00,54,6.90
2012,09,12,00,55,6.90
2012,09,12,00,56,6.90
2012,09,12,00,57,6.90
2012,09,12,00,58,6.90
2012,09,12,00,59,6.90
2012,09,12,01,00,6.90
2012,09,12,01,01,6.90
2012,09,12,01,02,6.90
2012,09,12,01,03,6.90
2012,09,12,01,04,6.80
2012,09,12,01,05,6.80
2012,09,12,01,06,6.80
2012,09,12,01,07,6.80
2012,09,12,01,08,6.80
2012,09,12,01,09,6.80
2012,09,12,01,10,6.80
2012,09,12,01,11,6.70
2012,09,12,01,12,6.70
2012,09,12,01,13,6.70
2012,09,12,01,14,6.70
2012,09,12,01,15,6.70
2012,09,12,01,16,6.70
2012,09,12,01,17,6.70
2012,09,12,01,18,6.70
2012,09,12,01,19,6.70
2012,09,12,01,20,6.70
2012,09,12,01,21,6.70
2012,09,12,01,22,6.70
2012,09,12,01,23,6.70
2012,09,12,01,24,6.60
2012,09,12,01,25,6.60
2012,09,12,01,26,6.60
2012,09,12,01,27,6.60
2012,09,12,01,28,6.60
2012,09,12,01,29,6.60
2012,09,12,01,30,6.60
2012,09,12,01,31,6.60
2012,09,12,01,32,6.60
2012,09,12,01,33,6.60
2012,09,12,01,34,6.60
2012,09,12,01,35,6.50
2012,09,12,01,36,6.50
2012,09,12,01,37,6.50
2012,09,12,01,38,6.50
2012,09,12,01,39,6.50
2012,09,12,01,40,6.50
2012,09,12,01,41,6.40
2012,09,12,01,42,6.40
2012,09,12,01,43,6.40
2012,09,12,01,44,6.40
2012,09,12,01,45,6.40
2012,09,12,01,46,6.40
2012,09,12,01,47,6.40
2012,09,12,01,48,6.40
2012,09,12,01,49,6.40
2012,09,12,01,50,6.40
2012,09,12,01,51,6.40
2012,09,12,01,52,6.30
2012,09,12,01,53,6.30
2012,09,12,01,54,6.30
2012,09,12,01,55,6.30
2012,09,12,01,56,6.30
2012,09,12,01,57,6.30
2012,09,12,01,58,6.30
2012,09,12,01,59,6.30
2012,09,12,02,00,6.30
2012,09,12,02,01,6.30
2012,09,12,02,02,6.20
2012,09,12,02,03,6.20
2012,09,12,02,04,6.20
2012,09,12,02,05,6.20
2012,09,12,02,06,6.20
2012,09,12,02,07,6.20
2012,09,12,02,08,6.20
2012,09,12,02,09,6.10
2012,09,12,02,10,6.10
2012,09,12,02,11,6.10
2012,09,12,02,12,6.10
2012,09,12,02,13,6.10
2012,09,12,02,14,6.10
2012,09,12,02,15,6.00
2012,09,12,02,16,6.00
2012,09,12,02,17,6.00
2012,09,12,02,18,6.00
2012,09,12,02,19,6.00
2012,09,12,02,20,6.00
2012,09,12,02,21,6.00
2012,09,12,02,22,5.90
2012,09,12,02,23,5.90
2012,09,12,02,24,5.90
2012,09,12,02,25,5.90
2012,09,12,02,26,5.90
2012,09,12,02,27,5.90
2012,09,12,02,28,5.90
2012,09,12,02,29,5.90
2012,09,12,02,30,5.90
2012,09,12,02,31,5.90
2012,09,12,02,32,5.90
2012,09,12,02,33,5.90
2012,09,12,02,34,5.90
2012,09,12,02,35,5.90
2012,09,12,02,36,5.90
2012,09,12,02,37,5.90
2012,09,12,02,38,5.90
2012,09,12,02,39,5.90
2012,09,12,02,40,5.90
2012,09,12,02,41,5.90
2012,09,12,02,42,5.90
2012,09,12,02,43,5.90
2012,09,12,02,44,5.90
2012,09,12,02,45,5.90
2012,09,12,02,46,5.80
2012,09,12,02,47,5.80
2012,09,12,02,48,5.80
2012,09,12,02,49,5.80
2012,09,12,02,50,5.80
2012,09,12,02,51,5.70
2012,09,12,02,52,5.70
2012,09,12,02,53,5.70
2012,09,12,02,54,5.70
2012,09,12,02,55,5.70
2012,09,12,02,56,5.70
2012,09,12,02,57,5.70
2012,09,12,02,58,5.70
2012,09,12,02,59,5.70
2012,09,12,03,00,5.70
2012,09,12,03,01,5.70
2012,09,12,03,02,5.70
2012,09,12,03,03,5.70
2012,09,12,03,04,5.70
2012,09,12,03,05,5.70
2012,09,12,03,06,5.60
2012,09,12,03,07,5.60
2012,09,12,03,08,5.60
2012,09,12,03,09,5.60
2012,09,12,03,10,5.60
2012,09,12,03,11,5.60
2012,09,12,03,12,5.60
2012,09,12,03,13,5.60
2012,09,12,03,14,5.50
2012,09,12,03,15,5.50
2012,09,12,03,16,5.50
2012,09,12,03,17,5.40
2012,09,12,03,18,5.40
2012,09,12,03,19,5.40
2012,09,12,03,20,5.40
2012,09,12,03,21,5.40
2012,09,12,03,22,5.40
2012,09,12,03,23,5.40
2012,09,12,03,24,5.30
2012,09,12,03,25,5.30
2012,09,12,03,26,5.30
2012,09,12,03,27,5.30
2012,09,12,03,28,5.20
2012,09,12,03,29,5.20
2012,09,12,03,30,5.20
2012,09,12,03,31,5.20
2012,09,12,03,32,5.20
2012,09,12,03,33,5.20
2012,09,12,03,34,5.20
2012,09,12,03,35,5.20
2012,09,12,03,36,5.20
2012,09,12,03,37,5.20
2012,09,12,03,38,5.20
2012,09,12,03,39,5.20
2012,09,12,03,40,5.10
2012,09,12,03,41,5.10
2012,09,12,03,42,5.10
2012,09,12,03,43,5.10
2012,09,12,03,44,5.10
2012,09,12,03,45,5.10
2012,09,12,03,46,5.10
2012,09,12,03,47,5.00
2012,09,12,03,48,5.00
2012,09,12,03,49,5.00
2012,09,12,03,50,5.00
2012,09,12,03,51,5.00
2012,09,12,03,52,5.00
2012,09,12,03,53,5.00
2012,09,12,03,54,5.00
2012,09,12,03,55,5.00
2012,09,12,03,56,5.00
2012,09,12,03,57,5.00
2012,09,12,03,58,5.00
2012,09,12,03,59,4.90
2012,09,12,04,00,4.90
2012,09,12,04,01,4.90
2012,09,12,04,02,4.90
2012,09,12,04,03,4.90
2012,09,12,04,04,4.90
2012,09,12,04,05,4.90
2012,09,12,04,06,4.90
2012,09,12,04,07,4.90
2012,09,12,04,08,4.90
2012,09,12,04,09,4.90
2012,09,12,04,10,4.90
2012,09,12,04,11,4.90
2012,09,12,04,12,4.90
2012,09,12,04,13,4.90
2012,09,12,04,14,4.90
2012,09,12,04,15,4.90
2012,09,12,04,16,4.90
2012,09,12,04,17,4.90
2012,09,12,04,18,4.90
2012,09,12,04,19,4.90
2012,09,12,04,20,4.90
2012,09,12,04,21,4.90
2012,09,12,04,22,4.90
2012,09,12,04,23,4.90
2012,09,12,04,24,4.90
2012,09,12,04,25,4.90
2012,09,12,04,26,4.80
2012,09,12,04,27,4.80
2012,09,12,04,28,4.80
2012,09,12,04,29,4.80
2012,09,12,04,30,4.80
2012,09,12,04,31,4.80
2012,09,12,04,32,4.80
2012,09,12,04,33,4.80
2012,09,12,04,34,4.80
2012,09,12,04,35,4.80
2012,09,12,04,36,4.70
2012,09,12,04,37,4.70
2012,09,12,04,38,4.70
2012,09,12,04,39,4.70
2012,09,12,04,40,4.70
2012,09,12,04,41,4.70
2012,09,12,04,42,4.70
2012,09,12,04,43,4.70
2012,09,12,04,44,4.60
2012,09,12,04,45,4.60
2012,09,12,04,46,4.60
2012,09,12,04,47,4.70
2012,09,12,04,48,4.60
2012,09,12,04,49,4.60
2012,09,12,04,50,4.70
2012,09,12,04,51,4.70
2012,09,12,04,52,4.70
2012,09,12,04,53,4.70
2012,09,12,04,54,4.70
2012,09,12,04,55,4.70
2012,09,12,04,56,4.70
2012,09,12,04,57,4.70
2012,09,12,04,58,4.70
2012,09,12,04,59,4.70
2012,09,12,05,00,4.70
2012,09,12,05,01,4.70
2012,09,12,05,02,4.70
2012,09,12,05,03,4.70
2012,09,12,05,04,4.70
2012,09,12,05,05,4.70
2012,09,12,05,06,4.70
2012,09,12,05,07,4.80
2012,09,12,05,08,4.80
2012,09,12,05,09,4.80
2012,09,12,05,10,4.90
2012,09,12,05,11,4.90
2012,09,12,05,12,5.00
2012,09,12,05,13,5.00
2012,09,12,05,14,5.00
2012,09,12,05,15,5.10
2012,09,12,05,16,5.10
2012,09,12,05,17,5.00
2012,09,12,05,18,5.00
2012,09,12,05,19,5.00
2012,09,12,05,20,5.00
2012,09,12,05,21,4.90
2012,09,12,05,22,4.90
2012,09,12,05,23,4.90
2012,09,12,05,24,4.90
2012,09,12,05,25,4.90
2012,09,12,05,26,4.90
2012,09,12,05,27,4.90
2012,09,12,05,28,4.90
2012,09,12,05,29,4.90
2012,09,12,05,30,4.90
2012,09,12,05,31,4.80
2012,09,12,05,32,4.80
2012,09,12,05,33,4.80
2012,09,12,05,34,4.80
2012,09,12,05,35,4.80
2012,09,12,05,36,4.80
2012,09,12,05,37,4.80
2012,09,12,05,38,4.80
2012,09,12,05,39,4.80
2012,09,12,05,40,4.70
2012,09,12,05,41,4.70
2012,09,12,05,42,4.70
2012,09,12,05,43,4.60
2012,09,12,05,44,4.60
2012,09,12,05,45,4.60
2012,09,12,05,46,4.60
2012,09,12,05,47,4.60
2012,09,12,05,48,4.60
2012,09,12,05,49,4.50
2012,09,12,05,50,4.50
2012,09,12,05,51,4.50
2012,09,12,05,52,4.50
2012,09,12,05,53,4.50
2012,09,12,05,54,4.50
2012,09,12,05,55,4.40
2012,09,12,05,56,4.40
2012,09,12,05,57,4.40
2012,09,12,05,58,4.40
2012,09,12,05,59,4.30
2012,09,12,06,00,4.30
2012,09,12,06,01,4.30
2012,09,12,06,02,4.30
2012,09,12,06,03,4.30
2012,09,12,06,04,4.30
2012,09,12,06,05,4.30
2012,09,12,06,06,4.30
2012,09,12,06,07,4.20
2012,09,12,06,08,4.20
2012,09,12,06,09,4.20
2012,09,12,06,10,4.20
2012,09,12,06,11,4.20
2012,09,12,06,12,4.20
2012,09,12,06,13,4.20
2012,09,12,06,14,4.20
2012,09,12,06,15,4.20
2012,09,12,06,16,4.20
2012,09,12,06,17,4.20
2012,09,12,06,18,4.20
2012,09,12,06,19,4.20
2012,09,12,06,20,4.20
2012,09,12,06,21,4.20
2012,09,12,06,22,4.20
2012,09,12,06,23,4.20
2012,09,12,06,24,4.20
2012,09,12,06,25,4.20
2012,09,12,06,26,4.20
2012,09,12,06,27,4.20
2012,09,12,06,28,4.20
2012,09,12,06,29,4.20
2012,09,12,06,30,4.20
2012,09,12,06,31,4.20
2012,09,12,06,32,4.20
2012,09,12,06,33,4.20
2012,09,12,06,34,4.20
2012,09,12,06,35,4.30
2012,09,12,06,36,4.30
2012,09,12,06,37,4.30
2012,09,12,06,38,4.30
2012,09,12,06,39,4.30
2012,09,12,06,40,4.20
2012,09,12,06,41,4.20
2012,09,12,06,42,4.20
2012,09,12,06,43,4.20
2012,09,12,06,44,4.20
2012,09,12,06,45,4.20
2012,09,12,06,46,4.20
2012,09,12,06,47,4.20
2012,09,12,06,48,4.20
2012,09,12,06,49,4.20
2012,09,12,06,50,4.30
2012,09,12,06,51,4.30
2012,09,12,06,52,4.30
2012,09,12,06,53,4.30
2012,09,12,06,54,4.30
2012,09,12,06,55,4.30
2012,09,12,06,56,4.30
2012,09,12,06,57,4.30
2012,09,12,06,58,4.30
2012,09,12,06,59,4.30
2012,09,12,07,00,4.30
2012,09,12,07,01,4.30
2012,09,12,07,02,4.30
2012,09,12,07,03,4.30
2012,09,12,07,04,4.30
2012,09,12,07,05,4.30
2012,09,12,07,06,4.30
2012,09,12,07,07,4.30
2012,09,12,07,08,4.30
2012,09,12,07,09,4.30
2012,09,12,07,10,4.30
2012,09,12,07,11,4.30
2012,09,12,07,12,4.30
2012,09,12,07,13,4.30
2012,09,12,07,14,4.30
2012,09,12,07,15,4.30
2012,09,12,07,16,4.30
2012,09,12,07,17,4.30
2012,09,12,07,18,4.30
2012,09,12,07,19,4.30
2012,09,12,07,20,4.30
2012,09,12,07,21,4.40
2012,09,12,07,22,4.40
2012,09,12,07,23,4.50
2012,09,12,07,24,4.50
2012,09,12,07,25,4.50
2012,09,12,07,26,4.50
2012,09,12,07,27,4.60
2012,09,12,07,28,4.50
2012,09,12,07,29,4.60
2012,09,12,07,30,4.60
2012,09,12,07,31,4.60
2012,09,12,07,32,4.60
2012,09,12,07,33,4.60
2012,09,12,07,34,4.60
2012,09,12,07,35,4.60
2012,09,12,07,36,4.60
2012,09,12,07,37,4.60
2012,09,12,07,38,4.60
2012,09,12,07,39,4.60
2012,09,12,07,40,4.60
2012,09,12,07,41,4.70
2012,09,12,07,42,4.70
2012,09,12,07,43,4.70
2012,09,12,07,44,4.70
2012,09,12,07,45,4.70
2012,09,12,07,46,4.70
2012,09,12,07,47,4.80
2012,09,12,07,48,4.80
2012,09,12,07,49,4.80
2012,09,12,07,50,4.80
2012,09,12,07,51,4.80
2012,09,12,07,52,4.80
2012,09,12,07,53,4.80
2012,09,12,07,54,4.80
2012,09,12,07,55,4.90
2012,09,12,07,56,4.90
2012,09,12,07,57,4.90
2012,09,12,07,58,4.90
2012,09,12,07,59,4.90
2012,09,12,08,00,4.90
2012,09,12,08,01,4.90
2012,09,12,08,02,5.00
2012,09,12,08,03,5.00
2012,09,12,08,04,5.00
2012,09,12,08,05,5.10
2012,09,12,08,06,5.10
2012,09,12,08,07,5.10
2012,09,12,08,08,5.20
2012,09,12,08,09,5.20
2012,09,12,08,10,5.20
2012,09,12,08,11,5.30
2012,09,12,08,12,5.30
2012,09,12,08,13,5.30
2012,09,12,08,14,5.40
2012,09,12,08,15,5.50
2012,09,12,08,16,5.50
2012,09,12,08,17,5.60
2012,09,12,08,18,5.70
2012,09,12,08,19,5.70
2012,09,12,08,20,5.80
2012,09,12,08,21,5.90
2012,09,12,08,22,5.90
2012,09,12,08,23,6.00
2012,09,12,08,24,6.00
2012,09,12,08,25,6.10
2012,09,12,08,26,6.20
2012,09,12,08,27,6.30
2012,09,12,08,28,6.30
2012,09,12,08,29,6.30
2012,09,12,08,30,6.40
2012,09,12,08,31,6.50
2012,09,12,08,32,6.50
2012,09,12,08,33,6.60
2012,09,12,08,34,6.60
2012,09,12,08,35,6.70
2012,09,12,08,36,6.70
2012,09,12,08,37,6.80
2012,09,12,08,38,6.80
2012,09,12,08,39,6.90
2012,09,12,08,40,7.00
2012,09,12,08,41,7.10
2012,09,12,08,42,7.20
2012,09,12,08,43,7.30
2012,09,12,08,44,7.40
2012,09,12,08,45,7.50
2012,09,12,08,46,7.70
2012,09,12,08,47,7.80
2012,09,12,08,48,7.90
2012,09,12,08,49,8.10
2012,09,12,08,50,8.20
2012,09,12,08,51,8.40
2012,09,12,08,52,8.50
2012,09,12,08,53,8.60
2012,09,12,08,54,8.80
2012,09,12,08,55,8.90
2012,09,12,08,56,9.10
2012,09,12,08,57,9.20
2012,09,12,08,58,9.30
2012,09,12,08,59,9.40
2012,09,12,09,00,9.50
2012,09,12,09,01,9.60
2012,09,12,09,02,9.70
2012,09,12,09,03,9.80
2012,09,12,09,04,10.00
2012,09,12,09,05,10.10
2012,09,12,09,06,10.20
2012,09,12,09,07,10.40
2012,09,12,09,08,10.50
2012,09,12,09,09,10.60
2012,09,12,09,10,10.70
2012,09,12,09,11,10.90
2012,09,12,09,12,11.00
2012,09,12,09,13,11.10
2012,09,12,09,14,11.20
2012,09,12,09,15,11.30
2012,09,12,09,16,11.40
2012,09,12,09,17,11.50
2012,09,12,09,18,11.70
2012,09,12,09,19,11.70
2012,09,12,09,20,11.80
2012,09,12,09,21,12.00
2012,09,12,09,22,12.10
2012,09,12,09,23,12.20
2012,09,12,09,24,12.30
2012,09,12,09,25,12.40
2012,09,12,09,26,12.50
2012,09,12,09,27,12.60
2012,09,12,09,28,12.70
2012,09,12,09,29,12.70
2012,09,12,09,30,12.80
2012,09,12,09,31,12.90
2012,09,12,09,32,13.00
2012,09,12,09,33,13.10
2012,09,12,09,34,13.10
2012,09,12,09,35,13.20
2012,09,12,09,36,13.30
2012,09,12,09,37,13.40
2012,09,12,09,38,13.60
2012,09,12,09,39,13.70
2012,09,12,09,40,13.80
2012,09,12,09,41,13.80
2012,09,12,09,42,13.90
2012,09,12,09,43,14.00
2012,09,12,09,44,14.10
2012,09,12,09,45,14.20
2012,09,12,09,46,14.30
2012,09,12,09,47,14.30
2012,09,12,09,48,14.40
2012,09,12,09,49,14.40
2012,09,12,09,50,14.50
2012,09,12,09,51,14.50
2012,09,12,09,52,14.60
2012,09,12,09,53,14.60
2012,09,12,09,54,14.70
2012,09,12,09,55,14.80
2012,09,12,09,56,14.80
2012,09,12,09,57,14.80
2012,09,12,09,58,14.80
2012,09,12,09,59,14.90
2012,09,12,10,00,14.90
2012,09,12,10,01,14.90
2012,09,12,10,02,14.90
2012,09,12,10,03,14.80
2012,09,12,10,04,14.80
2012,09,12,10,05,14.90
2012,09,12,10,06,14.90
2012,09,12,10,07,14.90
2012,09,12,10,08,14.90
2012,09,12,10,09,15.00
2012,09,12,10,10,15.10
2012,09,12,10,11,15.10
2012,09,12,10,12,15.20
2012,09,12,10,13,15.20
2012,09,12,10,14,15.20
2012,09,12,10,15,15.20
2012,09,12,10,16,15.30
2012,09,12,10,17,15.30
2012,09,12,10,18,15.40
2012,09,12,10,19,15.50
2012,09,12,10,20,15.50
2012,09,12,10,21,15.60
2012,09,12,10,22,15.60
2012,09,12,10,23,15.60
2012,09,12,10,24,15.70
2012,09,12,10,25,15.70
2012,09,12,10,26,15.70
2012,09,12,10,27,15.70
2012,09,12,10,28,15.70
2012,09,12,10,29,15.70
2012,09,12,10,30,15.70
2012,09,12,10,31,15.80
2012,09,12,10,32,15.80
2012,09,12,10,33,15.80
2012,09,12,10,34,15.80
2012,09,12,10,35,15.90
2012,09,12,10,36,15.90
2012,09,12,10,37,15.90
2012,09,12,10,38,16.00
2012,09,12,10,39,16.00
2012,09,12,10,40,16.10
2012,09,12,10,41,16.10
2012,09,12,10,42,16.20
2012,09,12,10,43,16.20
2012,09,12,10,44,16.30
2012,09,12,10,45,16.30
2012,09,12,10,46,16.30
2012,09,12,10,47,16.20
2012,09,12,10,48,16.20
2012,09,12,10,49,16.20
2012,09,12,10,50,16.20
2012,09,12,10,51,16.30
2012,09,12,10,52,16.30
2012,09,12,10,53,16.40
2012,09,12,10,54,16.40
2012,09,12,10,55,16.40
2012,09,12,10,56,16.40
2012,09,12,10,57,16.40
2012,09,12,10,58,16.40
2012,09,12,10,59,16.40
2012,09,12,11,00,16.50
2012,09,12,11,01,16.50
2012,09,12,11,02,16.50
2012,09,12,11,03,16.60
2012,09,12,11,04,16.50
2012,09,12,11,05,16.50
2012,09,12,11,06,16.40
2012,09,12,11,07,16.50
2012,09,12,11,08,16.50
2012,09,12,11,09,16.60
2012,09,12,11,10,16.60
2012,09,12,11,11,16.60
2012,09,12,11,12,16.70
2012,09,12,11,13,16.70
2012,09,12,11,14,16.80
2012,09,12,11,15,16.90
2012,09,12,11,16,16.90
2012,09,12,11,17,16.90
2012,09,12,11,18,17.00
2012,09,12,11,19,17.10
2012,09,12,11,20,17.10
2012,09,12,11,21,17.10
2012,09,12,11,22,17.00
2012,09,12,11,23,17.00
2012,09,12,11,24,16.90
2012,09,12,11,25,16.80
2012,09,12,11,26,16.90
2012,09,12,11,27,17.00
2012,09,12,11,28,17.10
2012,09,12,11,29,17.20
2012,09,12,11,30,17.20
2012,09,12,11,31,17.20
2012,09,12,11,32,17.20
2012,09,12,11,33,17.30
2012,09,12,11,34,17.30
2012,09,12,11,35,17.30
2012,09,12,11,36,17.30
2012,09,12,11,37,17.30
2012,09,12,11,38,17.40
2012,09,12,11,39,17.50
2012,09,12,11,40,17.60
2012,09,12,11,41,17.70
2012,09,12,11,42,17.70
2012,09,12,11,43,17.80
2012,09,12,11,44,17.80
2012,09,12,11,45,17.90
2012,09,12,11,46,17.90
2012,09,12,11,47,17.90
2012,09,12,11,48,17.90
2012,09,12,11,49,17.90
2012,09,12,11,50,17.90
2012,09,12,11,51,17.90
2012,09,12,11,52,17.90
2012,09,12,11,53,18.00
2012,09,12,11,54,18.00
2012,09,12,11,55,18.00
2012,09,12,11,56,17.90
2012,09,12,11,57,18.00
2012,09,12,11,58,18.00
2012,09,12,11,59,18.10
2012,09,12,12,00,18.20
2012,09,12,12,01,18.20
2012,09,12,12,02,18.30
2012,09,12,12,03,18.30
2012,09,12,12,04,18.30
2012,09,12,12,05,18.30
2012,09,12,12,06,18.30
2012,09,12,12,07,18.20
2012,09,12,12,08,18.20
2012,09,12,12,09,18.20
2012,09,12,12,10,18.20
2012,09,12,12,11,18.20
2012,09,12,12,12,18.30
2012,09,12,12,13,18.30
2012,09,12,12,14,18.40
2012,09,12,12,15,18.40
2012,09,12,12,16,18.40
2012,09,12,12,17,18.40
2012,09,12,12,18,18.40
2012,09,12,12,19,18.40
2012,09,12,12,20,18.40
2012,09,12,12,21,18.50
2012,09,12,12,22,18.50
2012,09,12,12,23,18.50
2012,09,12,12,24,18.60
2012,09,12,12,25,18.60
2012,09,12,12,26,18.60
2012,09,12,12,27,18.60
2012,09,12,12,28,18.70
2012,09,12,12,29,18.80
2012,09,12,12,30,18.80
2012,09,12,12,31,18.70
2012,09,12,12,32,18.60
2012,09,12,12,33,18.60
2012,09,12,12,34,18.60
2012,09,12,12,35,18.60
2012,09,12,12,36,18.60
2012,09,12,12,37,18.70
2012,09,12,12,38,18.80
2012,09,12,12,39,18.90
2012,09,12,12,40,19.00
2012,09,12,12,41,19.10
2012,09,12,12,42,19.10
2012,09,12,12,43,19.20
2012,09,12,12,44,19.10
2012,09,12,12,45,19.10
2012,09,12,12,46,19.10
2012,09,12,12,47,19.10
2012,09,12,12,48,19.10
2012,09,12,12,49,19.10
2012,09,12,12,50,19.20
2012,09,12,12,51,19.10
2012,09,12,12,52,19.00
2012,09,12,12,53,18.80
2012,09,12,12,54,18.80
2012,09,12,12,55,18.70
2012,09,12,12,56,18.70
2012,09,12,12,57,18.70
2012,09,12,12,58,18.80
2012,09,12,12,59,18.80
2012,09,12,13,00,18.80
2012,09,12,13,01,18.90
2012,09,12,13,02,19.00
2012,09,12,13,03,19.10
2012,09,12,13,04,19.20
2012,09,12,13,05,19.20
2012,09,12,13,06,19.20
2012,09,12,13,07,19.10
2012,09,12,13,08,19.10
2012,09,12,13,09,19.10
2012,09,12,13,10,19.20
2012,09,12,13,11,19.20
2012,09,12,13,12,19.30
2012,09,12,13,13,19.40
2012,09,12,13,14,19.60
2012,09,12,13,15,19.60
2012,09,12,13,16,19.60
2012,09,12,13,22,20.00
2012,09,12,13,23,20.00
2012,09,12,13,24,19.90
2012,09,12,13,25,19.90
2012,09,12,13,26,19.90
2012,09,12,13,27,19.90
2012,09,12,13,28,19.90
2012,09,12,13,29,19.90
2012,09,12,13,30,20.00
2012,09,12,13,31,20.00
2012,09,12,13,32,20.00
2012,09,12,13,33,19.90
2012,09,12,13,34,19.90
2012,09,12,13,35,20.00
2012,09,12,13,36,20.10
2012,09,12,13,37,20.10
2012,09,12,13,38,20.20
2012,09,12,13,39,20.20
2012,09,12,13,40,20.20
2012,09,12,13,41,20.20
2012,09,12,13,42,20.30
2012,09,12,13,43,20.40
2012,09,12,13,44,20.40
2012,09,12,13,45,20.50
2012,09,12,13,46,20.60
2012,09,12,13,47,20.70
2012,09,12,13,48,20.70
2012,09,12,13,49,20.60
2012,09,12,13,50,20.60
2012,09,12,13,51,20.60
2012,09,12,13,52,20.60
2012,09,12,13,53,20.60
2012,09,12,13,54,20.60
2012,09,12,13,55,20.60
2012,09,12,13,56,20.60
2012,09,12,13,57,20.60
2012,09,12,13,58,20.60
2012,09,12,13,59,20.60
2012,09,12,14,00,20.80
2012,09,12,14,01,20.80
2012,09,12,14,02,20.90
2012,09,12,14,03,20.80
2012,09,12,14,04,20.70
2012,09,12,14,05,20.70
2012,09,12,14,06,20.70
2012,09,12,14,07,20.60
2012,09,12,14,08,20.60
2012,09,12,14,09,20.60
2012,09,12,14,10,20.60
2012,09,12,14,11,20.50
2012,09,12,14,12,20.50
2012,09,12,14,13,20.40
2012,09,12,14,14,20.40
2012,09,12,14,15,20.40
2012,09,12,14,16,20.40
2012,09,12,14,17,20.40
2012,09,12,14,18,20.50
2012,09,12,14,19,20.60
2012,09,12,14,20,20.60
2012,09,12,14,21,20.60
2012,09,12,14,22,20.60
2012,09,12,14,23,20.60
2012,09,12,14,24,20.60
2012,09,12,14,25,20.60
2012,09,12,14,26,20.60
2012,09,12,14,27,20.70
2012,09,12,14,28,20.70
2012,09,12,14,29,20.70
2012,09,12,14,30,20.60
2012,09,12,14,31,20.60
2012,09,12,14,32,20.60
2012,09,12,14,33,20.60
2012,09,12,14,34,20.70
2012,09,12,14,35,20.80
2012,09,12,14,36,20.80
2012,09,12,14,37,20.80
2012,09,12,14,38,20.80
2012,09,12,14,39,20.80
2012,09,12,14,40,20.80
2012,09,12,14,41,20.80
2012,09,12,14,42,20.80
2012,09,12,14,43,20.80
2012,09,12,14,44,20.90
2012,09,12,14,45,20.80
2012,09,12,14,46,20.70
2012,09,12,14,47,20.70
2012,09,12,14,48,20.60
2012,09,12,14,49,20.60
2012,09,12,14,50,20.60
2012,09,12,14,51,20.60
2012,09,12,14,52,20.60
2012,09,12,14,53,20.60
2012,09,12,14,54,20.70
2012,09,12,14,55,20.60
2012,09,12,14,56,20.60
2012,09,12,14,57,20.60
2012,09,12,14,58,20.60
2012,09,12,14,59,20.60
2012,09,12,15,00,20.60
2012,09,12,15,01,20.60
2012,09,12,15,02,20.70
2012,09,12,15,03,20.70
2012,09,12,15,04,20.80
2012,09,12,15,05,20.80
2012,09,12,15,06,20.80
2012,09,12,15,07,20.70
2012,09,12,15,08,20.70
2012,09,12,15,09,20.80
2012,09,12,15,10,20.70
2012,09,12,15,11,20.70
2012,09,12,15,12,20.70
2012,09,12,15,13,20.70
2012,09,12,15,14,20.70
2012,09,12,15,15,20.70
2012,09,12,15,16,20.70
2012,09,12,15,17,20.70
2012,09,12,15,18,20.70
2012,09,12,15,19,20.80
2012,09,12,15,20,20.80
2012,09,12,15,21,20.80
2012,09,12,15,22,20.80
2012,09,12,15,23,20.80
2012,09,12,15,24,20.90
2012,09,12,15,25,20.90
2012,09,12,15,26,20.80
2012,09,12,15,27,20.80
2012,09,12,15,28,20.80
2012,09,12,15,29,20.80
2012,09,12,15,30,20.80
2012,09,12,15,31,20.80
2012,09,12,15,32,20.80
2012,09,12,15,33,20.80
2012,09,12,15,34,20.80
2012,09,12,15,35,20.70
2012,09,12,15,36,20.70
2012,09,12,15,37,20.60
2012,09,12,15,38,20.60
2012,09,12,15,39,20.60
2012,09,12,15,40,20.60
2012,09,12,15,41,20.70
2012,09,12,15,42,20.70
2012,09,12,15,43,20.70
2012,09,12,15,44,20.80
2012,09,12,15,45,20.90
2012,09,12,15,46,20.90
2012,09,12,15,47,20.90
2012,09,12,15,48,21.00
2012,09,12,15,49,21.00
2012,09,12,15,50,21.00
2012,09,12,15,51,21.00
2012,09,12,15,52,21.10
2012,09,12,15,53,21.10
2012,09,12,15,54,21.10
2012,09,12,15,55,21.10
2012,09,12,15,56,21.10
2012,09,12,15,57,21.20
2012,09,12,15,58,21.20
2012,09,12,15,59,21.20
2012,09,12,16,00,21.30
2012,09,12,16,01,21.30
2012,09,12,16,02,21.30
2012,09,12,16,03,21.30
2012,09,12,16,04,21.30
2012,09,12,16,05,21.30
2012,09,12,16,06,21.30
2012,09,12,16,07,21.30
2012,09,12,16,08,21.20
2012,09,12,16,09,21.30
2012,09,12,16,10,21.30
2012,09,12,16,11,21.20
2012,09,12,16,12,21.30
2012,09,12,16,13,21.20
2012,09,12,16,14,21.20
2012,09,12,16,15,21.20
2012,09,12,16,16,21.10
2012,09,12,16,17,21.10
2012,09,12,16,18,21.00
2012,09,12,16,19,21.00
2012,09,12,16,20,21.10
2012,09,12,16,21,21.10
2012,09,12,16,22,21.20
2012,09,12,16,23,21.20
2012,09,12,16,24,21.20
2012,09,12,16,25,21.20
2012,09,12,16,26,21.10
2012,09,12,16,27,21.20
2012,09,12,16,28,21.20
2012,09,12,16,29,21.20
2012,09,12,16,30,21.20
2012,09,12,16,31,21.20
2012,09,12,16,32,21.20
2012,09,12,16,33,21.20
2012,09,12,16,34,21.10
2012,09,12,16,35,21.10
2012,09,12,16,36,21.10
2012,09,12,16,37,21.10
2012,09,12,16,38,21.10
2012,09,12,16,39,21.10
2012,09,12,16,40,21.10
2012,09,12,16,41,21.10
2012,09,12,16,42,21.20
2012,09,12,16,43,21.20
2012,09,12,16,44,21.30
2012,09,12,16,45,21.40
2012,09,12,16,46,21.40
2012,09,12,16,47,21.40
2012,09,12,16,48,21.40
2012,09,12,16,49,21.40
2012,09,12,16,50,21.30
2012,09,12,16,51,21.30
2012,09,12,16,52,21.30
2012,09,12,16,53,21.30
2012,09,12,16,54,21.30
2012,09,12,16,55,21.30
2012,09,12,16,56,21.30
2012,09,12,16,57,21.40
2012,09,12,16,58,21.40
2012,09,12,16,59,21.50
2012,09,12,17,00,21.60
2012,09,12,17,01,21.60
2012,09,12,17,02,21.70
2012,09,12,17,03,21.60
2012,09,12,17,04,21.60
2012,09,12,17,05,21.60
2012,09,12,17,06,21.60
2012,09,12,17,07,21.60
2012,09,12,17,08,21.50
2012,09,12,17,09,21.50
2012,09,12,17,10,21.50
2012,09,12,17,11,21.50
2012,09,12,17,12,21.60
2012,09,12,17,13,21.60
2012,09,12,17,14,21.60
2012,09,12,17,15,21.60
2012,09,12,17,16,21.60
2012,09,12,17,17,21.60
2012,09,12,17,18,21.60
2012,09,12,17,19,21.60
2012,09,12,17,20,21.60
2012,09,12,17,21,21.50
2012,09,12,17,22,21.50
2012,09,12,17,23,21.50
2012,09,12,17,24,21.40
2012,09,12,17,25,21.50
2012,09,12,17,26,21.50
2012,09,12,17,27,21.50
2012,09,12,17,28,21.40
2012,09,12,17,29,21.40
2012,09,12,17,30,21.40
2012,09,12,17,31,21.40
2012,09,12,17,32,21.40
2012,09,12,17,33,21.30
2012,09,12,17,34,21.30
2012,09,12,17,35,21.20
2012,09,12,17,36,21.20
2012,09,12,17,37,21.30
2012,09,12,17,38,21.30
2012,09,12,17,39,21.40
2012,09,12,17,40,21.40
2012,09,12,17,41,21.50
2012,09,12,17,42,21.60
2012,09,12,17,43,21.60
2012,09,12,17,44,21.60
2012,09,12,17,45,21.60
2012,09,12,17,46,21.60
2012,09,12,17,47,21.50
2012,09,12,17,48,21.50